Tracking 18630 objects as of 26-May-2017
HD Live streaming from Space Station
objects crossing your sky now

GOES 4 AKM

Track GOES 4 AKM now!


NORAD ID: 11970
Int'l Code: 1980-074C
Perigee: 33,781.8 km
Apogee: 50,276.4 km
Inclination: 23.2 °
Period: 1,766.2 minutes
Semi major axis: 48400 km
RCS: 0.003 m2 (small)
Launch date: September 9, 1980
Source: United States (US)
Launch site: AIR FORCE EASTERN TEST RANGE (AFETR)

Note: This is a ROCKET BODY
Your satellite tracking list
Your tracking list is empty





NASA's NSSDC Master Catalog

Two Line Element Set (TLE):
1 11970U 80074C   17146.52126314 -.00000219 +00000-0 +00000-0 0  9993
2 11970 023.2081 342.4983 1703978 190.3498 353.5988 00.81533028011540
Source of the keplerian elements: AFSPC